Regional Weather Roundup
Issued by NWS

Home | Current Version | Previous Version | Text Only | Print | Product List | Glossary On
Versions: 1 2 3 4 5 6 7 8 9 10 11 12 13 14 15 16 17 18 19 20 21 22 23 24 25 26 27 28 29 30 31 32 33 34 35 36 37 38 39 40 41 42 43 44 45 46 47 48 49 50
000
ASUS43 KOAX 220403
RWRNE

WEATHER ROUNDUP FOR NEBRASKA
NATIONAL WEATHER SERVICE OMAHA NE
1100 PM CDT SAT SEP 21 2019

NOTES: SATELLITE DATA IS BEING USED TO AUGMENT CLOUD COVER ABOVE
       12000 FEET.
       "FAIR" INDICATES FEW OR NO CLOUDS BELOW 12,000 FEET WITH NO
       SIGNIFICANT WEATHER AND/OR OBSTRUCTIONS TO VISIBILITY.


NEZ001>004-019>022-054>056-220500-
NEBRASKA PANHANDLE

CITY           SKY/WX    TMP DP  RH WIND       PRES   REMARKS
SCOTTSBLUFF    FAIR      58  43  57 CALM      30.10R
ALLIANCE       MOCLDY    54  42  64 NW6       30.07R
CHADRON        FAIR      51  42  71 W5        30.06R
GORDON         MOCLDY    53  47  79 N3        30.05S
KIMBALL        HVY RAIN  51  47  87 NW3       30.13S
SIDNEY         LGT RAIN  53  44  71 NW21      30.08R
$$

NEZ057>060-069>072-079>082-220500-
SOUTHWEST NEBRASKA

CITY           SKY/WX    TMP DP  RH WIND       PRES   REMARKS
NORTH PLATTE   FAIR      61  43  51 NE10      29.93R
IMPERIAL       FAIR      58  39  49 N12       29.95R
LEXINGTON      CLOUDY    65  45  48 N15       29.90S
MCCOOK         CLOUDY    67  42  40 NE8       29.86F
OGALLALA       FAIR      62  43  48 N14G20    29.96F
$$

NEZ005>010-023>029-035>040-094-220500-
NORTH CENTRAL NEBRASKA

CITY           SKY/WX    TMP DP  RH WIND       PRES   REMARKS
VALENTINE      FAIR      56  45  66 NW8       30.01R
AINSWORTH      FAIR      56  47  72 N12       29.99F
BROKEN BOW     FAIR      58  48  69 N7        29.94R
O`NEILL        FAIR      58  51  77 N6        29.95S
ORD            FAIR      60  48  64 N7        29.91R
THEDFORD       FAIR      61  44  53 N15       29.96F
$$

NEZ041-046>049-061>064-073>077-083>087-220500-
SOUTH CENTRAL NEBRASKA

CITY           SKY/WX    TMP DP  RH WIND       PRES   REMARKS
GRAND ISLAND   CLOUDY    68  50  52 NE8       29.89R
AURORA         MOCLDY    69  54  58 NE8       29.89R
HASTINGS       FAIR      73  49  42 E12G25    29.91R
HEBRON         LGT RAIN  67  64  91 E8        29.90S
HOLDREGE       MOCLDY    64  49  59 NE8       29.89R
KEARNEY        MOCLDY    65  47  52 NE13      29.89R
YORK           FAIR      72  64  78 NE7       29.89R
$$

NEZ011>018-030>034-042>045-220500-
NORTHEAST NEBRASKA

CITY           SKY/WX    TMP DP  RH WIND       PRES   REMARKS
NORFOLK        FAIR      66  54  65 N6        29.92R
ALBION         FAIR      64  51  61 N8        29.92R
BLAIR          MOCLDY    67  65  93 S5        29.88R
COLUMBUS       FAIR      70  58  65 NE8       29.91R
FREMONT        FAIR      70  68  94 SE3       29.88R
TEKAMAH        MOCLDY    68  65  90 N12       29.88R
WAYNE          FAIR      61  57  84 CALM      29.92R
$$

NEZ050>053-065>068-078-088>093-220500-
SOUTHEAST NEBRASKA

CITY           SKY/WX    TMP DP  RH WIND       PRES   REMARKS
LINCOLN        TSTM      68  65  90 E6        29.89R
OMAHA EPPLEY   MOCLDY    66  64  93 S10       29.89R THUNDER
BEATRICE       CLOUDY    70  62  74 SW10      29.91R
FALLS CITY     FAIR      75  71  87 S12       29.86S
NEBRASKA CITY  RAIN      67  67 100 W7        29.90R
PLATTSMOUTH    TSTM      70  66  89 E10       29.91R
$$

NEZ044-045-051>053-067-220500-
OMAHA AREA

CITY           SKY/WX    TMP DP  RH WIND       PRES   REMARKS
OMAHA EPPLEY   MOCLDY    66  64  93 S10       29.89R THUNDER
BLAIR          MOCLDY    67  65  93 S5        29.88R
FREMONT        FAIR      70  68  94 SE3       29.88R
MILLARD        LGT RAIN  68  65  90 SE5       29.90R
PLATTSMOUTH    TSTM      70  66  89 E10       29.91R
WAHOO          MOCLDY    67  67  98 E6        29.88R
$$



USA.gov is the U.S. government's official web portal to all federal, state and local government web resources and services.